Weather History for KGPI - September, 2013

Change the Weather History Date:

Friday, September 27, 2013

  Actual Average Record
Temperature  
Mean Temperature 40 °F 50 °F  
Max Temperature 53 °F 65 °F 86 °F (1957)
Min Temperature 27 °F 35 °F 24 °F (1985)
Degree Days  
Heating Degree Days 25 15  
Month to date heating degree days 189 281  
Since 1 July heating degree days 230 451  
Cooling Degree Days 0 0  
Month to date cooling degree days 29 1  
Year to date cooling degree days 264 144  
Moisture  
Dew Point 33 °F    
Average Humidity 67    
Maximum Humidity 92    
Minimum Humidity 41    
Precipitation  
Precipitation T in 0.04 in 0.55 in (1959)
Month to date precipitation 2.18 1.27  
Year to date precipitation 12.80 12.88  
Snow  
Snow 0.00 in - - ()
Month to date snowfall 0.0  
Year to date snowfall 10.1  
Since 1 July snowfall 0.0  
Snow Depth 0.00 in    
Sea Level Pressure  
Sea Level Pressure 30.01 in    
Wind  
Wind Speed 5 mph (SSW)    
Max Wind Speed 18 mph    
Max Gust Speed 25 mph    
Visibility 10 miles    
Events Rain    
T = Trace of Precipitation, MM = Missing Value Source: NWS Daily Summary

Daily Weather History Graph

Daily Weather History Graph

Search for Another Location

Airport or City:

Trip Planner

Search our weather history database for the weather conditions in past years. The results will help you decide how hot, cold, wet, or windy it might be!

Date:

Astronomy

Sep. 27, 2013 Rise Set
Actual Time 7:31 AM MDT 7:23 PM MDT
Civil Twilight 7:00 AM MDT 7:54 PM MDT
Nautical Twilight 6:23 AM MDT 8:31 PM MDT
Astronomical Twilight 5:46 AM MDT 9:08 PM MDT
Moon 12:04 AM MDT (9/27) 3:29 PM MDT (9/27)
Length of Visible Light 12h 54m
Length of Day
11h 52m
Last Quarter, 44% of the Moon is Illuminated
Sep 27
Last Quarter
Oct 4
New
Oct 11
First Quarter
Oct 18
Full
Oct 26
Last Quarter

Hourly Weather History & Observations

Time (MDT) Temp. Windchill Dew Point Humidity Pressure Visibility Wind Dir Wind Speed Gust Speed Precip Events Conditions
12:55 AM 30.0 °F - 28.0 °F 92% 30.04 in 10.0 mi Calm Calm - N/A   Clear
1:55 AM 30.9 °F - 28.0 °F 89% 30.03 in 10.0 mi Calm Calm - N/A   Clear
2:55 AM 28.0 °F - 27.0 °F 96% 30.05 in 10.0 mi Calm Calm - N/A   Clear
3:55 AM 32.0 °F 28.7 °F 30.0 °F 92% 30.05 in 10.0 mi WNW 3.5 mph - N/A   Mostly Cloudy
4:55 AM 30.0 °F 26.5 °F 28.0 °F 92% 30.04 in 10.0 mi NNE 3.5 mph - N/A   Partly Cloudy
5:55 AM 30.0 °F 26.5 °F 28.0 °F 92% 30.05 in 10.0 mi ENE 3.5 mph - N/A   Overcast
6:55 AM 30.9 °F - 28.9 °F 92% 30.05 in 10.0 mi Calm Calm - N/A   Overcast
7:55 AM 28.9 °F - 27.0 °F 92% 30.06 in 6.0 mi Calm Calm - N/A   Clear
8:55 AM 33.1 °F - 30.0 °F 89% 30.06 in 10.0 mi Calm Calm - N/A   Mostly Cloudy
9:55 AM 37.0 °F - 33.1 °F 86% 30.06 in 10.0 mi Calm Calm - N/A   Overcast
10:55 AM 39.9 °F - 33.1 °F 77% 30.06 in 10.0 mi Calm Calm - N/A   Overcast
11:55 AM 43.0 °F - 36.0 °F 76% 30.04 in 10.0 mi Calm Calm - N/A   Overcast
12:55 PM 48.0 °F - 37.9 °F 68% 30.01 in 10.0 mi South 4.6 mph - N/A   Overcast
1:55 PM 50.0 °F - 37.9 °F 63% 29.98 in 10.0 mi SSE 6.9 mph - 0.00 in Rain Light Rain
2:55 PM 51.1 °F - 37.9 °F 61% 29.96 in 10.0 mi SSE 4.6 mph - 0.00 in   Overcast
3:55 PM 53.1 °F - 30.9 °F 43% 29.94 in 10.0 mi WSW 12.7 mph 25.3 mph N/A   Overcast
4:55 PM 51.1 °F - 33.1 °F 50% 29.96 in 10.0 mi WSW 10.4 mph - N/A   Overcast
5:55 PM 48.0 °F - 35.1 °F 61% 29.98 in 10.0 mi SSW 13.8 mph - 0.00 in   Overcast
6:55 PM 48.0 °F - 36.0 °F 63% 29.97 in 10.0 mi South 8.1 mph - N/A   Overcast
7:55 PM 48.0 °F - 35.1 °F 61% 29.98 in 10.0 mi SSW 8.1 mph - N/A   Overcast
8:55 PM 46.9 °F - 35.1 °F 63% 29.96 in 10.0 mi SSW 9.2 mph - N/A   Overcast
9:55 PM 46.9 °F - 35.1 °F 63% 29.97 in 10.0 mi SSW 6.9 mph - N/A   Overcast
10:55 PM 46.9 °F - 35.1 °F 63% 29.96 in 10.0 mi SSW 11.5 mph - N/A   Overcast
11:55 PM 46.9 °F - 35.1 °F 63% 29.94 in 10.0 mi SSW 9.2 mph - N/A   Overcast